�N����,����,�~����,�C��,���x,�C��,����,���ϕ���,�ő�u�ԕ���,�ő厞����,���˗�,�I�_���x,�n�����x,�ő啗���N��,DTYPE
"19/05/05","00:10",0.0,11.9,54.3,1013.8,332.6,1.8,2.9,316.8,0.00,3.0,16.2,"00:00:54",1
"19/05/05","00:20",0.0,11.6,56.9,1013.8,340.7,1.7,3.9,341.5,0.00,3.4,16.1,"00:19:46",1
"19/05/05","00:30",0.0,11.6,55.3,1014.0,313.8,2.0,3.1,328.3,0.00,3.0,15.7,"00:26:20",1
"19/05/05","00:40",0.0,11.7,55.1,1013.5,323.2,2.1,3.3,329.9,0.00,3.0,15.8,"00:32:14",1
"19/05/05","00:50",0.0,11.6,55.2,1013.5,333.8,2.2,4.0,315.4,0.00,3.0,15.8,"00:41:58",1
"19/05/05","01:00",0.0,11.4,55.3,1013.5,326.9,1.8,3.3,316.4,0.00,2.8,15.6,"00:50:08",1
"19/05/05","01:10",0.0,11.1,56.1,1013.8,294.0,1.7,2.8,295.8,0.00,2.7,15.7,"01:01:20",1
"19/05/05","01:20",0.0,11.3,56.0,1013.5,324.1,2.5,3.7,325.9,0.00,2.9,15.7,"01:17:22",1
"19/05/05","01:30",0.0,11.1,55.4,1013.3,313.1,1.8,4.0,331.9,0.00,2.5,15.3,"01:20:08",1
"19/05/05","01:40",0.0,11.1,55.8,1013.8,313.2,2.0,4.0,316.9,0.00,2.7,15.4,"01:37:24",1
"19/05/05","01:50",0.0,10.5,58.9,1013.5,329.9,2.2,2.9,331.9,0.00,2.8,15.3,"01:44:38",1
"19/05/05","02:00",0.0,9.6,64.7,1013.5,315.0,1.6,2.2,336.3,0.00,3.3,15.3,"01:50:32",1
"19/05/05","02:10",0.0,9.5,66.6,1013.5,313.7,1.5,2.8,323.9,0.00,3.6,15.1,"02:07:48",1
"19/05/05","02:20",0.0,9.9,64.7,1013.5,312.5,1.5,2.5,323.7,0.00,3.6,15.2,"02:19:36",1
"19/05/05","02:30",0.0,10.2,62.3,1013.3,304.4,1.6,2.7,299.1,0.00,3.4,15.0,"02:20:16",1
"19/05/05","02:40",0.0,10.2,62.4,1013.5,324.1,1.6,2.6,330.3,0.00,3.4,15.0,"02:34:16",1
"19/05/05","02:50",0.0,9.8,64.7,1013.5,321.3,1.5,2.4,316.8,0.00,3.5,14.8,"02:41:44",1
"19/05/05","03:00",0.0,9.9,67.2,1013.5,315.8,1.6,2.6,318.4,0.00,4.1,14.8,"02:51:52",1
"19/05/05","03:10",0.0,10.1,67.1,1013.5,307.9,1.5,2.4,318.7,0.00,4.3,14.9,"03:04:48",1
"19/05/05","03:20",0.0,9.8,67.8,1013.3,323.9,1.3,2.6,336.8,0.00,4.2,14.7,"03:11:04",1
"19/05/05","03:30",0.0,10.1,69.7,1013.5,312.6,1.3,2.7,325.7,0.00,4.9,14.9,"03:26:56",1
"19/05/05","03:40",0.0,9.5,69.4,1013.8,330.6,1.8,2.5,314.5,0.00,4.2,14.8,"03:36:24",1
"19/05/05","03:50",0.0,9.2,73.0,1013.8,313.1,1.2,2.1,313.2,0.00,4.7,14.8,"03:40:16",1
"19/05/05","04:00",0.0,9.3,73.6,1013.5,313.6,1.2,2.0,313.5,0.00,4.9,14.5,"03:59:36",1
"19/05/05","04:10",0.0,9.5,74.8,1013.8,323.1,1.5,2.6,310.8,0.00,5.3,14.7,"04:07:44",1
"19/05/05","04:20",0.0,9.6,77.9,1013.8,302.4,1.3,2.4,295.3,0.00,6.0,14.7,"04:19:20",1
"19/05/05","04:30",0.0,10.0,77.9,1013.5,299.5,1.6,2.7,308.2,0.00,6.4,14.5,"04:21:20",1
"19/05/05","04:40",0.0,9.6,77.5,1013.8,319.7,1.8,2.6,325.7,0.00,5.9,14.6,"04:30:02",1
"19/05/05","04:50",0.0,9.7,81.3,1014.0,305.0,1.6,2.4,325.3,0.00,6.7,14.3,"04:40:16",1
"19/05/05","05:00",0.0,9.9,81.1,1013.5,312.1,1.3,2.5,329.5,0.00,6.9,14.6,"04:55:20",1
"19/05/05","05:10",0.0,10.1,81.7,1013.8,297.0,1.6,2.1,286.1,0.00,7.2,14.3,"05:02:56",1
"19/05/05","05:20",0.0,10.3,81.5,1013.5,295.6,1.7,2.4,305.8,0.00,7.3,14.3,"05:12:56",1
"19/05/05","05:30",0.0,10.4,80.9,1014.0,321.3,1.2,2.2,316.7,0.00,7.3,14.3,"05:29:20",1
"19/05/05","05:40",0.0,10.1,82.0,1014.2,329.2,2.0,2.6,309.2,0.00,7.2,14.2,"05:30:48",1
"19/05/05","05:50",0.0,9.9,84.1,1014.5,326.2,1.6,2.5,322.3,0.00,7.4,14.3,"05:40:16",1
"19/05/05","06:00",0.0,10.2,85.0,1014.5,321.3,1.8,2.7,335.8,0.00,7.8,14.2,"05:50:56",1
"19/05/05","06:10",0.0,10.5,84.9,1014.5,315.1,1.3,2.2,326.9,0.00,8.1,14.3,"06:00:08",1
"19/05/05","06:20",0.0,10.8,84.7,1014.9,300.1,1.5,2.4,316.1,0.01,8.4,14.1,"06:19:36",1
"19/05/05","06:30",0.0,11.1,84.2,1014.9,317.9,1.6,3.1,336.4,0.02,8.6,14.3,"06:20:40",1
"19/05/05","06:40",0.0,11.3,84.5,1014.9,309.1,1.2,1.7,320.2,0.03,8.8,14.3,"06:33:12",1
"19/05/05","06:50",0.0,11.6,84.4,1015.4,292.4,1.2,2.1,311.8,0.04,9.1,14.4,"06:42:24",1
"19/05/05","07:00",0.0,12.4,83.1,1015.9,317.3,0.8,1.6,325.2,0.06,9.7,14.5,"06:59:20",1
"19/05/05","07:10",0.0,13.0,81.5,1015.9,322.7,1.1,1.7,317.9,0.09,10.0,14.5,"07:08:40",1
"19/05/05","07:20",0.0,14.2,79.3,1015.9,312.0,0.7,1.3,328.5,0.12,10.7,14.3,"07:13:28",1
"19/05/05","07:30",0.0,14.4,76.1,1016.1,254.3,0.3,1.0,255.7,0.12,10.3,14.8,"07:22:16",1
"19/05/05","07:40",0.0,15.0,74.8,1016.4,270.4,0.5,1.3,18.0,0.13,10.6,15.0,"07:39:20",1
"19/05/05","07:50",0.0,15.8,72.7,1016.4,347.9,0.8,1.8,339.4,0.17,11.0,14.9,"07:41:36",1
"19/05/05","08:00",0.0,16.7,71.5,1016.1,311.1,0.5,1.3,348.9,0.20,11.6,15.1,"07:50:24",1
"19/05/05","08:10",0.0,17.1,69.4,1015.6,149.4,0.3,1.3,337.2,0.22,11.5,15.1,"08:01:12",1
"19/05/05","08:20",0.0,17.8,69.0,1015.6,287.3,0.5,1.2,283.5,0.23,12.1,15.1,"08:10:16",1
"19/05/05","08:30",0.0,18.2,67.5,1015.6,166.1,0.5,1.3,118.8,0.26,12.1,15.3,"08:20:56",1
"19/05/05","08:40",0.0,19.3,65.9,1015.4,38.4,0.5,1.6,122.9,0.30,12.8,15.6,"08:36:40",1
"19/05/05","08:50",0.0,19.0,64.7,1015.2,180.1,1.3,2.8,119.3,0.32,12.2,15.7,"08:42:56",1
"19/05/05","09:00",0.0,19.7,64.2,1015.2,155.8,1.5,2.9,210.9,0.35,12.8,16.0,"08:57:04",1
"19/05/05","09:10",0.0,20.2,62.2,1015.2,153.5,0.8,1.9,107.9,0.38,12.8,16.2,"09:05:44",1
"19/05/05","09:20",0.0,20.0,61.7,1015.4,181.9,1.6,3.1,142.1,0.39,12.5,16.4,"09:13:28",1
"19/05/05","09:30",0.0,20.8,59.1,1014.7,146.9,1.2,3.1,212.2,0.42,12.6,16.5,"09:22:08",1
"19/05/05","09:40",0.0,20.7,58.4,1014.5,208.9,1.2,3.3,224.2,0.43,12.3,16.8,"09:39:36",1
"19/05/05","09:50",0.0,21.0,58.6,1014.5,195.5,1.5,2.8,226.1,0.46,12.6,17.1,"09:45:44",1
"19/05/05","10:00",0.0,20.9,56.1,1014.2,200.8,1.5,3.7,195.5,0.48,11.9,17.2,"09:54:48",1
"19/05/05","10:10",0.0,22.1,53.0,1014.0,142.7,1.5,3.2,132.5,0.51,12.1,17.5,"10:05:36",1
"19/05/05","10:20",0.0,22.4,53.6,1013.8,135.9,1.2,3.4,118.9,0.52,12.6,17.7,"10:10:08",1
"19/05/05","10:30",0.0,22.8,52.0,1013.8,204.4,1.1,3.5,173.3,0.52,12.5,18.1,"10:24:08",1
"19/05/05","10:40",0.0,22.9,46.3,1013.8,181.0,2.1,4.5,225.9,0.54,10.8,18.4,"10:37:04",1
"19/05/05","10:50",0.0,22.5,44.1,1013.5,174.9,1.7,3.5,226.1,0.56,9.7,18.6,"10:41:44",1
"19/05/05","11:00",0.0,23.1,44.4,1013.0,160.6,1.8,4.5,147.9,0.58,10.4,18.9,"10:55:52",1
"19/05/05","11:10",0.0,22.8,42.1,1013.3,176.7,1.7,4.1,115.4,0.56,9.3,19.2,"11:01:44",1
"19/05/05","11:20",0.0,23.5,43.6,1012.8,155.4,1.7,4.1,148.0,0.52,10.5,19.6,"11:17:20",1
"19/05/05","11:30",0.0,23.7,40.9,1012.1,132.5,2.2,4.9,121.9,0.55,9.7,19.5,"11:21:36",1
"19/05/05","11:40",0.0,23.3,41.6,1011.9,163.9,1.8,4.4,164.2,0.46,9.6,19.7,"11:38:08",1
"19/05/05","11:50",0.0,23.7,33.9,1011.9,160.8,1.5,3.6,166.3,0.51,6.9,20.1,"11:47:20",1
"19/05/05","12:00",0.0,24.5,36.4,1011.9,163.5,2.0,3.7,178.4,0.59,8.7,20.4,"11:54:16",1
"19/05/05","12:10",0.0,24.8,32.2,1012.1,156.6,2.5,4.2,150.0,0.63,7.1,20.8,"12:00:40",1
"19/05/05","12:20",0.0,25.2,33.7,1011.6,146.2,2.2,4.7,121.0,0.58,8.1,20.8,"12:12:40",1
"19/05/05","12:30",0.0,24.9,28.7,1011.6,166.2,1.8,4.2,138.8,0.57,5.6,21.0,"12:22:08",1
"19/05/05","12:40",0.0,25.3,29.3,1011.4,120.8,2.0,3.9,126.7,0.59,6.2,21.3,"12:36:56",1
"19/05/05","12:50",0.0,25.4,28.8,1011.2,120.7,2.2,4.5,125.2,0.56,6.0,21.4,"12:45:04",1
"19/05/05","13:00",0.0,25.4,28.4,1011.2,170.8,2.6,5.4,196.0,0.58,5.8,21.7,"12:56:16",1
"19/05/05","13:10",0.0,25.5,29.8,1010.9,136.8,2.2,5.1,132.9,0.61,6.6,21.8,"13:06:00",1
"19/05/05","13:20",0.0,25.8,29.4,1010.9,149.9,2.0,4.9,160.8,0.58,6.7,22.1,"13:16:08",1
"19/05/05","13:30",0.0,25.7,28.2,1010.9,158.5,1.8,4.7,209.7,0.60,6.0,22.1,"13:20:56",1
"19/05/05","13:40",0.0,25.8,27.0,1010.7,165.9,2.0,4.9,195.4,0.54,5.4,22.2,"13:32:56",1
"19/05/05","13:50",0.0,25.9,25.8,1010.9,202.6,1.6,4.4,174.5,0.58,4.9,22.3,"13:49:04",1
"19/05/05","14:00",0.0,25.9,25.3,1010.4,147.0,2.1,4.2,219.5,0.54,4.6,22.5,"13:52:56",1
"19/05/05","14:10",0.0,26.4,30.7,1010.2,145.5,1.5,6.0,126.6,0.55,7.8,22.5,"14:06:00",1
"19/05/05","14:20",0.0,26.3,24.2,1010.4,153.2,2.7,5.4,126.0,0.53,4.3,22.4,"14:15:20",1
"19/05/05","14:30",0.0,26.3,24.4,1010.4,156.2,2.3,4.9,182.8,0.48,4.4,22.4,"14:26:48",1
"19/05/05","14:40",0.0,26.7,22.9,1009.7,143.8,2.7,5.6,121.3,0.47,3.8,22.6,"14:37:20",1
"19/05/05","14:50",0.0,26.4,22.4,1009.3,164.9,2.8,4.3,141.5,0.45,3.3,22.5,"14:41:12",1
"19/05/05","15:00",0.0,27.2,25.1,1009.5,194.2,1.6,3.5,225.9,0.44,5.6,22.5,"14:56:24",1
"19/05/05","15:10",0.0,27.5,21.0,1009.5,176.8,2.0,3.6,205.1,0.47,3.3,22.6,"15:08:08",1
"19/05/05","15:20",0.0,26.7,21.4,1009.3,190.6,3.5,5.9,217.0,0.45,2.9,22.7,"15:15:44",1
"19/05/05","15:30",0.0,26.4,22.6,1008.8,156.5,2.7,5.1,179.2,0.38,3.4,22.7,"15:26:00",1
"19/05/05","15:40",0.0,26.5,24.4,1008.6,158.5,3.0,4.7,138.7,0.41,4.6,22.6,"15:31:04",1
"19/05/05","15:50",0.0,26.4,22.5,1008.1,176.7,2.7,5.0,204.9,0.38,3.3,22.7,"15:44:16",1
"19/05/05","16:00",0.0,26.7,23.1,1007.8,210.8,2.0,4.1,207.8,0.35,4.0,22.8,"15:52:32",1
"19/05/05","16:10",0.0,26.9,24.0,1007.6,228.2,1.7,5.7,231.3,0.32,4.7,22.4,"16:07:28",1
"19/05/05","16:20",0.0,26.5,22.2,1007.8,204.6,2.2,4.2,211.3,0.30,3.2,22.4,"16:16:48",1
"19/05/05","16:30",0.0,26.9,23.1,1007.8,223.6,1.2,2.7,228.1,0.28,4.1,22.5,"16:24:56",1
"19/05/05","16:40",0.0,26.6,23.3,1007.6,198.1,1.8,4.8,218.2,0.24,4.0,22.2,"16:33:36",1
"19/05/05","16:50",0.0,26.7,26.5,1007.6,169.5,1.5,3.3,141.2,0.21,5.9,22.1,"16:41:44",1
"19/05/05","17:00",0.0,25.9,38.2,1007.6,349.5,2.8,7.1,342.8,0.19,10.6,22.3,"16:55:36",1
"19/05/05","17:10",0.0,26.0,39.8,1008.1,120.4,1.6,4.4,187.2,0.17,11.3,22.1,"17:00:08",1
"19/05/05","17:20",0.0,25.7,25.4,1008.8,206.1,2.5,4.5,205.4,0.16,4.5,21.8,"17:13:52",1
"19/05/05","17:30",0.0,25.9,27.2,1008.6,185.9,1.8,4.5,195.5,0.15,5.6,21.8,"17:27:12",1
"19/05/05","17:40",0.0,25.6,26.5,1008.3,187.8,2.5,4.1,190.6,0.11,5.0,21.7,"17:32:16",1
"19/05/05","17:50",0.0,25.2,28.8,1008.6,186.4,2.5,5.6,203.0,0.08,5.9,21.7,"17:48:16",1
"19/05/05","18:00",0.0,24.1,32.7,1009.0,169.8,3.1,5.9,136.9,0.02,6.7,21.7,"17:53:04",1
"19/05/05","18:10",0.0,23.5,35.0,1009.3,171.6,2.7,5.2,146.7,0.02,7.2,21.3,"18:06:48",1
"19/05/05","18:20",0.0,23.0,37.9,1009.5,178.0,2.7,4.5,175.7,0.01,7.9,21.2,"18:12:48",1
"19/05/05","18:30",0.0,22.5,42.2,1009.7,156.9,2.5,4.0,188.9,0.01,9.1,21.2,"18:27:12",1
"19/05/05","18:40",0.0,22.1,42.2,1010.0,151.4,2.1,4.2,139.2,0.00,8.7,21.0,"18:35:44",1
"19/05/05","18:50",0.0,21.7,44.2,1010.0,173.7,1.8,3.6,185.4,0.00,9.0,20.8,"18:40:16",1
"19/05/05","19:00",0.0,21.5,47.0,1010.4,165.7,1.7,3.3,154.7,0.00,9.8,20.7,"18:52:40",1
"19/05/05","19:10",0.0,21.3,50.7,1010.4,173.1,1.5,3.5,208.3,0.00,10.7,20.5,"19:09:28",1
"19/05/05","19:20",0.0,20.7,53.0,1010.4,246.2,1.0,2.2,231.3,0.00,10.8,20.3,"19:12:32",1
"19/05/05","19:30",0.0,19.9,51.3,1010.4,291.6,0.8,1.4,274.7,0.00,9.6,20.2,"19:23:44",1
"19/05/05","19:40",0.0,19.2,52.2,1011.4,283.1,1.1,1.7,337.6,0.00,9.2,20.0,"19:31:12",1
"19/05/05","19:50",0.0,19.2,53.4,1011.2,326.0,1.2,2.5,346.1,0.00,9.6,20.1,"19:43:04",1
"19/05/05","20:00",0.0,19.3,58.1,1011.4,308.3,1.6,2.5,266.0,0.00,10.9,19.7,"19:57:44",1
"19/05/05","20:10",0.0,19.7,57.4,1011.9,259.4,1.6,4.7,233.1,0.00,11.1,19.7,"20:00:32",1
"19/05/05","20:20",0.0,19.5,59.9,1011.9,285.5,1.2,2.8,329.5,0.00,11.6,19.6,"20:12:32",1
"19/05/05","20:30",0.0,19.5,60.6,1012.1,281.7,1.5,3.7,334.9,0.00,11.7,19.6,"20:27:36",1
"19/05/05","20:40",0.0,19.5,60.4,1011.9,295.3,1.8,4.1,340.1,0.00,11.7,19.3,"20:37:20",1
"19/05/05","20:50",0.0,19.5,60.5,1011.6,302.7,2.0,5.2,322.9,0.00,11.7,19.3,"20:47:44",1
"19/05/05","21:00",0.0,19.5,61.0,1012.1,303.3,1.6,4.0,331.4,0.00,11.8,19.1,"20:59:52",1
"19/05/05","21:10",0.0,19.4,60.5,1012.3,317.7,1.2,3.1,321.0,0.00,11.6,19.1,"21:00:16",1
"19/05/05","21:20",0.0,19.1,61.0,1012.1,329.3,1.5,3.5,79.0,0.00,11.5,19.0,"21:16:32",1
"19/05/05","21:30",0.0,18.8,62.2,1012.3,347.2,1.0,1.9,343.5,0.00,11.5,19.0,"21:25:20",1
"19/05/05","21:40",0.0,18.6,63.2,1012.3,339.4,1.7,4.8,348.5,0.00,11.5,18.8,"21:38:48",1
"19/05/05","21:50",0.0,18.3,63.7,1012.6,306.9,1.2,2.4,346.0,0.00,11.3,18.6,"21:42:16",1
"19/05/05","22:00",0.0,17.9,65.2,1012.8,285.8,1.0,1.8,324.2,0.00,11.3,18.5,"21:57:52",1
"19/05/05","22:10",0.0,17.4,65.8,1012.3,329.5,1.5,1.9,335.3,0.00,11.0,18.6,"22:01:52",1
"19/05/05","22:20",0.0,17.1,68.0,1012.6,322.7,1.5,2.7,339.2,0.00,11.2,18.5,"22:19:12",1
"19/05/05","22:30",0.0,16.9,68.6,1012.3,335.4,2.1,2.9,333.8,0.00,11.1,18.2,"22:22:32",1
"19/05/05","22:40",0.0,16.4,70.5,1012.3,332.6,1.7,2.6,342.1,0.00,11.1,18.2,"22:32:24",1
"19/05/05","22:50",0.0,16.1,72.7,1012.1,26.6,0.8,1.4,337.3,0.00,11.2,18.0,"22:40:08",1
"19/05/05","23:00",0.0,15.8,73.6,1012.1,333.7,1.2,1.8,308.6,0.00,11.1,18.1,"22:58:40",1
"19/05/05","23:10",0.0,15.4,75.8,1012.1,319.2,1.3,2.0,330.3,0.00,11.2,18.1,"23:08:08",1
"19/05/05","23:20",0.0,15.2,76.7,1012.1,298.6,1.1,1.9,324.8,0.00,11.2,17.9,"23:16:16",1
"19/05/05","23:30",0.0,15.2,76.9,1012.1,297.8,1.1,1.9,328.1,0.00,11.2,17.8,"23:28:32",1
"19/05/05","23:40",0.0,15.1,77.0,1012.1,312.0,1.3,2.1,322.2,0.00,11.1,17.7,"23:34:56",1
"19/05/05","23:50",0.0,15.0,76.9,1012.3,305.9,1.1,1.6,336.6,0.00,11.0,17.6,"23:40:32",1
"19/05/05","24:00",0.0,14.8,77.5,1012.1,303.3,0.7,1.2,299.6,0.00,10.9,17.5,"23:56:08",1
